Location: �terpigny
(49.8910°N, 2.9249°E)
Time: 06:37:27
(UTC+00:00)

NANOSAT C BR1 - Pass Details

Date: 04 July 2022
Orbit: 584 x 599 km, 98.0° (Epoch: 14 August)

Event Time Altitude Azimuth Distance (km) Brightness Sun altitude
Rises 01:37:08 0° 19° (NNE) 2,853 ? -13.6°
Reaches altitude 10° 01:39:23 10° 25° (NNE) 1,948 ? -13.5°
Maximum altitude 01:43:28 45° 99° (E) 825 ? -13.2°
Enters shadow 01:46:54 14° 170° (S) 1,710 ? -12.9°
